User: anonymous   Login
Location: Unspecified
(0.0000°N, 0.0000°E)
Time: 18:41:34
(UTC+02:00)
Language:

ASC 2 Rocket - Orbit

View from above orbital plane
View from above orbital plane
View from above satellite
View from above satellite

Ground track
Ground track

The orbit data is extracted from the following two-line orbital elements,

1 21228U 91028B   18140.88722314 +.00000272 +00000-0 +44199-4 0  9996
2 21228 023.9978 321.9919 1143064 197.6974 158.0243 12.53360983239952
Epoch (UTC): 20 May 2018 21:17:36
Eccentricity: 0.1143064
inclination: 23.9978°
perigee height: 555 km
apogee height: 2345 km
right ascension of ascending node: 321.9919°
argument of perigee: 197.6974°
revolutions per day: 12.53360983
mean anomaly at epoch: 158.0243°
orbit number at epoch: 23995

The dashed part of the orbit path shows where the satellite is in the earth's shadow,  

DLR